Location: Newark
(43.0000°N, 1.6781°W)
Time: 11:11:24
(UTC+00:00)

Transit 2A - All Passes

Search period start: 27 September 2022 00:00
Search period end: 07 October 2022 00:00
Orbit: 601 x 956 km, 66.7° (Epoch: 26 September)

Date Brightness Start Highest point End Pass type
(mag) Time Alt. Az. Time Alt. Az. Time Alt. Az.
27 Sep - 00:35:14 10° SSW 00:39:45 81° WNW 00:44:07 10° NNE visible
27 Sep - 02:21:47 10° WNW 02:23:34 12° NW 02:25:20 10° NNW visible
27 Sep - 07:38:00 10° N 07:40:48 16° NE 07:43:42 10° E daylight
27 Sep - 09:19:46 10° NNW 09:24:27 85° WSW 09:29:35 10° SSE daylight
28 Sep - 00:00:55 10° SSW 00:05:24 65° ESE 00:09:43 10° NE night (unlit)
28 Sep - 01:46:03 10° W 01:48:55 17° NW 01:51:45 10° N visible
28 Sep - 07:04:33 10° NNE 07:06:07 11° NE 07:07:44 10° ENE daylight
28 Sep - 08:45:26 10° NNW 08:50:04 65° ENE 08:55:09 10° SE daylight
28 Sep - 10:29:54 10° WNW 10:32:47 16° WSW 10:35:48 10° SW daylight
28 Sep - 23:26:51 10° S 23:31:06 41° ESE 23:35:12 10° NE night (unlit)
29 Sep - 01:10:47 10° W 01:14:20 23° NW 01:17:51 10° N visible
29 Sep - 08:11:11 10° NNW 08:15:39 44° NE 08:20:30 10° SE daylight
29 Sep - 09:54:46 10° WNW 09:58:34 24° WSW 10:02:39 10° SSW daylight
29 Sep - 22:53:05 10° SSE 22:56:50 26° ESE 23:00:29 10° NE night (unlit)
30 Sep - 00:35:47 10° WSW 00:39:49 33° NW 00:43:46 10° NNE night (unlit)
30 Sep - 07:37:01 10° NNW 07:41:11 31° NE 07:45:38 10° ESE daylight
30 Sep - 09:19:58 10° NW 09:24:18 35° WSW 09:29:00 10° S daylight
30 Sep - 22:19:43 10° SSE 22:22:38 17° ESE 22:25:28 10° ENE night (unlit)
01 Oct - 00:01:01 10° SW 00:05:21 49° NW 00:09:35 10° NNE night (unlit)
01 Oct - 07:02:58 10° N 07:06:39 23° NE 07:10:33 10° E daylight
01 Oct - 08:45:24 10° NW 08:50:00 53° WSW 08:55:03 10° SSE daylight
01 Oct - 21:47:31 10° ESE 21:48:28 11° ESE 21:49:24 10° E night (unlit)
01 Oct - 23:26:28 10° SW 23:30:57 76° WNW 23:35:18 10° NNE night (unlit)
02 Oct - 01:13:18 10° WNW 01:14:50 12° NW 01:16:20 10° NNW visible
02 Oct - 06:29:04 10° N 06:32:04 17° NE 06:35:11 10° E daylight
02 Oct - 08:10:56 10° NNW 08:15:40 80° WSW 08:20:51 10° SSE daylight
02 Oct - 22:52:08 10° SSW 22:56:35 69° ESE 23:00:55 10° NE night (unlit)
03 Oct - 00:37:26 10° W 00:40:09 16° NW 00:42:52 10° N night (unlit)
03 Oct - 05:55:29 10° NNE 05:57:24 12° NE 05:59:22 10° ENE daylight
03 Oct - 07:36:36 10° NNW 07:41:18 70° ENE 07:46:27 10° SE daylight
03 Oct - 09:21:12 10° WNW 09:23:59 15° WSW 09:26:54 10° SW daylight
03 Oct - 22:18:02 10° S 22:22:17 43° ESE 22:26:24 10° NE night (unlit)
04 Oct - 00:02:06 10° W 00:05:33 22° NW 00:08:59 10° N night (unlit)
04 Oct - 07:02:20 10° NNW 07:06:52 47° NE 07:11:50 10° SE daylight
04 Oct - 08:46:00 10° WNW 08:49:46 23° WSW 08:53:48 10° SSW daylight
04 Oct - 21:44:12 10° S 21:48:01 28° ESE 21:51:44 10° NE night (unlit)
04 Oct - 23:27:05 10° WSW 23:31:01 31° NW 23:34:55 10° NNE night (unlit)
05 Oct - 06:28:09 10° NNW 06:32:24 33° NE 06:37:00 10° ESE daylight
05 Oct - 08:11:12 10° NW 08:15:31 34° WSW 08:20:13 10° S daylight
05 Oct - 21:10:46 10° SSE 21:13:48 18° ESE 21:16:46 10° ENE night (unlit)
05 Oct - 22:52:16 10° SW 22:56:33 46° NW 23:00:45 10° NNE night (unlit)
06 Oct - 05:54:04 10° N 05:57:53 24° NE 06:01:57 10° ESE daylight
06 Oct - 07:36:35 10° NW 07:41:13 50° WSW 07:46:18 10° S daylight
06 Oct - 20:38:15 10° SE 20:39:38 11° ESE 20:41:00 10° E night (unlit)
06 Oct - 22:17:42 10° SW 22:22:08 72° WNW 22:26:29 10° NNE night (unlit)
